Theta_e
297 298 298 298 297 296 298 299 299 301 302 303 303 306 314 316 313 312 309 306 308 312 316 316 315 317 314 307 306 307 308 307 306 307 307 308 308 310 310 308 309 310 307 307 307 306 308 308 308 308 305 305 308 308 308 311 312 314 315 313 314 317 316 313 317 322 318 312 308 307 307 310 310 309 309 309 312 319 322 322 320 316 314 316 315 316 321
297 297 297 298 298 297 297 298 299 300 301 302 303 310 317 315 314 316 309 304 310 313 313 316 317 317 316 313 310 308 306 306 308 307 307 308 308 310 310 307 306 306 305 307 306 305 307 307 306 306 305 306 309 309 309 311 314 316 316 314 312 313 317 317 316 319 318 315 313 312 313 313 311 309 307 307 310 313 315 316 314 312 314 316 316 318 321
296 297 297 297 298 297 297 298 299 300 300 301 304 309 313 311 311 316 311 305 309 314 314 317 318 315 314 314 312 310 309 308 308 306 306 307 306 308 308 306 307 308 307 309 310 307 306 305 306 309 310 311 310 309 309 310 314 317 316 314 311 310 317 318 314 316 315 314 315 318 319 313 308 309 306 306 312 312 310 312 311 312 314 313 316 320 319
296 297 297 297 297 297 297 297 298 300 300 301 303 305 310 311 309 316 318 311 309 310 310 313 316 313 312 312 310 309 310 310 308 306 305 305 305 306 306 306 309 309 309 311 313 310 307 306 310 315 316 313 310 309 309 310 312 313 313 316 316 312 312 314 314 315 314 312 313 315 315 311 308 309 306 307 312 312 311 311 311 314 316 313 315 317 312
296 296 296 297 297 297 297 297 298 300 299 301 303 305 309 311 308 310 314 312 313 315 312 311 312 310 309 309 308 309 311 311 309 307 305 305 306 307 305 305 307 308 309 311 310 309 310 309 310 312 312 312 311 308 308 309 311 310 310 316 319 313 311 312 313 314 312 310 311 309 308 310 310 310 308 309 312 311 310 311 311 313 311 309 315 315 309
296 296 296 297 297 297 296 297 298 299 299 300 305 308 307 306 306 305 304 304 309 312 310 309 311 310 309 310 308 308 310 311 309 308 307 307 307 306 306 305 305 305 307 309 308 310 310 308 309 308 306 309 312 309 307 306 307 307 308 314 316 312 312 310 308 312 313 309 309 307 307 309 309 310 310 310 312 311 308 311 313 312 308 308 314 316 313
295 295 296 296 297 297 296 296 297 298 299 299 303 306 305 306 308 306 303 304 307 308 307 307 310 311 312 312 308 305 307 308 305 304 306 308 307 305 306 306 305 305 308 311 311 310 308 305 307 308 305 306 309 308 308 307 305 304 306 311 312 310 314 313 308 309 312 311 310 308 307 309 308 309 310 309 309 309 308 310 312 310 309 308 310 311 312
295 295 296 295 296 297 296 296 297 297 299 299 300 301 302 304 306 305 306 309 310 309 309 309 312 312 310 310 307 304 305 305 304 303 304 305 306 305 306 306 304 305 311 314 310 310 311 306 304 306 305 306 308 307 306 307 307 305 304 308 309 308 312 313 309 308 309 311 312 310 308 310 309 307 309 306 306 307 305 306 308 308 308 308 306 307 309
295 295 295 295 296 296 296 296 296 297 298 299 299 298 298 299 299 300 305 310 308 308 309 308 311 311 308 308 308 305 304 302 303 304 303 302 304 304 304 305 305 305 308 309 305 307 312 310 307 309 307 306 308 307 305 305 305 305 306 307 308 307 310 311 309 307 308 309 311 309 309 309 307 307 308 306 307 309 308 307 308 308 308 308 305 305 308
294 294 295 295 295 296 296 296 296 296 297 297 297 297 296 297 299 298 300 304 304 306 307 306 308 307 304 305 306 305 304 302 302 303 303 301 301 301 303 305 304 304 305 304 301 302 306 310 309 308 305 304 305 305 305 303 302 305 307 307 307 308 308 310 310 307 305 308 310 309 309 309 308 309 310 308 308 309 308 308 308 308 307 307 306 306 308
294 294 294 294 295 295 296 296 295 295 296 296 295 295 294 296 298 297 300 303 302 303 306 306 307 306 303 303 304 304 304 304 303 303 303 302 300 300 303 304 304 305 303 300 299 298 300 303 303 301 301 302 303 302 302 302 301 303 304 304 307 309 307 307 309 306 305 307 308 308 308 307 306 308 309 308 307 307 307 307 307 307 307 308 309 308 307
294 294 294 294 294 295 295 296 296 295 295 295 295 295 294 295 296 297 301 303 302 303 305 304 302 303 301 301 303 303 304 304 302 301 303 303 301 300 301 302 304 304 300 297 297 299 300 300 302 303 302 303 303 302 301 302 303 303 302 301 305 308 307 307 307 306 305 305 305 307 308 306 304 305 305 306 306 305 305 306 307 307 307 308 309 308 305
294 294 294 294 294 294 295 295 296 295 294 295 295 294 295 296 296 298 301 305 305 304 304 303 301 300 301 301 303 304 303 303 303 302 302 302 301 301 300 300 300 299 297 296 299 302 302 302 304 305 303 303 305 304 301 303 305 304 302 301 302 305 306 306 305 305 305 305 306 308 307 304 305 307 306 307 308 307 304 304 306 305 305 308 310 309 307
294 294 294 294 294 294 294 295 295 295 294 294 294 294 295 295 296 298 299 304 307 302 300 303 303 302 302 302 302 304 304 304 304 303 301 299 300 299 299 299 297 295 295 297 302 305 304 306 308 306 302 303 305 303 301 302 303 303 301 300 301 304 306 305 304 304 305 306 308 308 305 304 307 308 305 305 307 307 304 304 305 304 304 307 308 309 309
294 294 294 294 293 294 294 294 295 295 294 294 294 294 294 295 296 296 296 300 304 301 299 300 301 301 302 301 300 302 304 304 303 302 302 301 299 299 299 297 295 294 295 299 304 306 304 304 305 304 304 304 302 301 302 302 302 302 301 301 302 303 304 305 305 304 304 305 306 306 306 307 308 306 304 303 304 304 302 303 305 305 304 305 306 308 310
294 294 294 293 293 293 294 294 295 295 294 293 293 294 293 294 295 296 295 297 300 299 298 297 297 298 300 300 299 299 300 301 301 302 304 303 300 299 298 295 294 296 300 303 306 306 304 303 302 303 305 305 301 301 302 302 303 303 302 303 304 304 304 304 304 305 305 304 305 306 307 307 306 305 305 305 303 301 302 304 306 304 303 304 305 306 308
294 294 294 293 293 293 293 294 294 295 295 293 293 293 293 293 294 295 296 297 299 300 298 296 297 298 299 299 299 298 298 299 299 299 300 301 300 299 298 296 296 298 300 304 306 304 303 303 302 303 304 302 301 302 302 301 303 304 303 304 306 307 307 305 303 305 306 305 306 306 305 305 305 305 307 306 302 300 303 307 307 303 302 304 304 305 307
293 294 293 293 293 293 293 293 294 294 294 294 293 292 292 292 293 294 295 296 298 300 298 295 296 298 297 296 298 298 297 298 298 297 298 299 298 297 296 296 298 298 298 302 305 304 303 303 301 302 303 302 300 301 301 301 302 303 301 302 304 305 305 303 302 305 306 305 306 306 304 305 304 305 306 305 302 302 305 308 305 303 303 304 304 304 306
293 293 293 293 293 293 293 293 293 294 294 294 293 292 292 292 292 293 295 295 296 298 296 294 295 296 295 295 297 297 296 296 296 296 299 300 297 296 296 296 297 298 299 301 302 301 302 303 300 301 303 302 300 300 300 300 301 301 300 300 302 303 302 301 302 302 303 304 305 304 303 303 304 304 305 303 302 304 306 305 303 302 303 303 304 304 304
293 293 293 293 293 293 293 293 293 294 294 294 293 293 292 292 291 292 293 294 295 296 295 294 295 296 295 295 297 297 297 297 296 296 297 298 297 298 300 299 298 299 301 302 301 299 300 302 300 300 302 301 298 298 299 299 299 299 298 299 300 300 300 301 302 301 300 301 302 302 302 302 302 303 302 301 302 303 302 301 302 304 304 304 305 306 305
293 293 293 293 293 293 293 294 293 294 294 293 293 293 292 292 291 291 292 293 294 296 296 295 295 295 295 295 295 295 295 296 296 296 297 298 297 298 299 298 298 298 299 300 299 297 299 300 299 299 300 300 298 297 298 299 300 298 297 298 298 299 299 300 302 301 300 301 303 304 304 302 302 302 301 301 301 301 299 299 302 305 305 306 305 306 306
293 293 293 293 293 293 293 293 293 294 293 293 293 293 292 292 291 291 292 292 293 296 296 295 294 294 294 295 295 295 295 295 295 295 296 297 298 297 297 298 300 299 298 299 298 296 297 299 299 298 299 299 299 298 298 299 299 299 298 297 297 298 299 300 300 300 299 300 302 302 301 302 303 303 302 300 299 298 298 300 302 303 304 304 304 303 304
293 293 293 293 293 293 293 293 293 294 293 293 293 293 293 292 291 292 292 292 292 294 294 293 294 294 294 295 294 294 294 295 295 294 295 297 299 299 297 297 298 298 299 300 298 297 298 299 298 298 299 299 299 299 299 298 298 298 298 297 298 299 299 298 299 299 299 299 299 297 298 300 302 301 300 298 297 298 300 301 302 304 304 303 303 302 302
293 293 293 293 293 293 293 293 293 293 293 293 293 293 293 292 292 292 292 292 293 295 294 294 295 296 295 294 294 294 294 294 294 294 294 295 298 300 299 296 295 297 300 300 297 298 299 298 297 298 300 299 298 298 298 297 298 297 296 298 300 300 298 297 298 299 299 299 299 298 297 299 298 297 297 297 296 298 301 303 303 303 302 302 302 302 302
293 293 293 293 293 293 294 294 293 293 293 293 293 293 293 292 292 292 293 293 293 294 296 298 299 296 293 294 294 293 294 294 293 294 294 294 295 298 298 296 294 296 298 296 296 298 299 298 297 298 299 298 297 297 297 296 296 296 296 297 299 298 296 297 298 298 297 297 298 297 296 297 296 296 296 296 296 298 300 302 301 301 301 301 300 300 300
293 293 293 293 293 293 294 294 294 294 294 293 293 293 293 293 293 292 293 293 292 292 295 299 298 294 293 294 294 293 294 294 294 294 294 294 294 295 296 295 294 294 294 295 297 300 300 299 298 298 298 297 296 297 298 297 296 296 297 297 297 297 297 297 298 297 296 297 297 296 296 296 297 297 297 297 298 298 299 299 299 300 301 300 298 297 297
293 293 293 293 293 293 294 294 294 294 294 293 293 294 293 293 293 294 293 293 292 293 295 297 297 294 293 293 293 293 294 294 294 294 295 294 294 294 294 294 295 296 296 296 298 299 299 299 298 298 298 297 296 297 298 296 296 297 297 296 297 297 297 297 297 297 296 296 296 296 296 295 296 297 297 297 298 298 297 297 298 298 298 299 298 296 295
294 293 293 293 293 292 293 294 294 294 293 292 294 295 294 294 295 295 294 293 293 293 294 294 294 294 293 293 294 294 294 294 294 294 295 295 295 295 294 293 295 298 299 299 298 298 299 299 298 298 298 297 296 297 297 296 296 296 296 296 296 297 297 296 297 297 296 296 295 295 295 295 295 295 295 296 296 297 297 296 296 297 297 297 297 297 296
293 293 293 292 291 292 292 293 293 293 292 292 294 294 294 294 294 294 294 294 293 294 294 294 295 294 293 293 294 293 294 294 293 293 294 294 294 295 294 293 296 298 299 300 299 299 300 300 298 298 298 297 297 297 297 297 297 296 295 295 296 297 297 296 296 296 295 295 295 295 295 294 294 295 295 295 295 296 296 296 296 297 296 296 297 297 297
293 293 293 291 290 291 293 292 293 293 293 292 293 294 296 295 294 293 294 293 293 294 294 295 297 295 293 293 294 293 294 294 293 293 294 293 293 293 293 294 297 298 298 298 298 298 300 300 299 298 297 296 296 296 295 295 295 295 295 296 296 296 296 296 295 295 295 294 294 294 294 294 294 294 294 294 295 295 296 296 296 296 296 295 296 297 296
294 293 292 290 289 290 292 292 292 293 293 292 293 296 298 297 295 294 294 293 293 293 294 295 296 295 294 294 294 293 293 294 293 293 293 293 292 292 292 293 295 296 297 298 297 296 297 299 300 299 297 296 297 296 294 294 295 295 295 296 295 295 295 295 294 294 294 293 293 293 293 293 294 294 295 295 295 295 295 295 295 295 296 296 296 296 295
294 292 291 290 289 290 291 292 293 293 293 292 293 295 296 296 295 294 294 294 293 292 294 295 295 294 294 295 293 292 293 294 292 292 293 293 293 292 292 293 293 294 297 298 297 296 297 298 298 297 296 296 297 295 293 294 295 295 294 295 294 294 294 294 294 294 294 293 293 294 294 295 295 295 295 295 295 294 294 295 295 295 295 296 295 295 295
293 291 289 289 290 290 291 292 292 293 293 293 293 294 294 294 296 295 294 294 292 292 293 294 292 291 293 294 293 292 293 295 295 294 294 294 292 292 293 295 294 294 295 296 296 296 296 296 297 296 294 294 295 295 295 295 295 295 294 294 294 294 294 294 294 295 295 294 294 295 295 295 295 295 294 294 294 294 295 295 295 295 295 295 295 295 295
291 289 289 291 292 293 294 294 293 293 293 293 293 293 293 293 295 295 294 293 292 292 294 294 292 292 293 294 295 294 293 294 296 295 295 294 292 291 294 296 296 295 295 295 296 296 295 296 297 296 294 292 293 294 296 297 296 295 294 294 294 294 294 294 295 296 295 295 295 295 295 295 295 295 295 295 295 295 296 296 296 295 295 295 295 295 295
290 290 291 292 293 294 294 294 293 293 293 293 293 293 293 294 294 294 294 293 293 294 295 293 292 293 294 296 298 296 292 293 295 295 294 294 292 291 293 295 296 295 293 293 294 295 295 295 295 294 293 292 293 296 298 297 295 294 294 294 295 295 295 295 296 296 295 294 294 295 295 295 295 295 295 295 295 295 296 296 295 295 296 295 295 295 295
290 290 292 294 294 294 294 293 293 293 293 293 293 292 293 295 294 294 294 293 293 295 295 293 292 293 294 296 298 295 293 294 295 294 294 294 293 293 294 294 295 295 293 293 294 294 293 294 293 293 293 293 294 298 298 296 295 294 294 294 295 295 295 296 295 295 294 294 294 294 295 294 294 294 294 295 295 295 295 296 296 296 296 296 297 296 296
290 290 293 295 295 295 294 293 292 292 292 292 293 293 294 295 294 294 294 294 294 294 293 293 294 293 292 294 296 295 294 295 294 295 296 295 293 293 294 293 294 294 294 296 296 294 293 294 294 294 296 296 295 297 297 295 294 294 293 294 295 295 295 295 294 294 294 294 294 294 294 294 294 294 294 295 295 295 296 296 296 297 297 297 297 296 295
290 291 292 293 294 296 295 293 292 292 292 293 293 294 294 294 293 294 294 295 296 295 292 293 294 292 290 293 295 294 293 294 293 294 296 295 293 293 294 294 294 292 292 294 294 291 292 296 295 295 297 297 295 295 296 294 293 294 294 294 295 294 294 295 294 294 294 294 294 294 294 295 295 295 295 295 295 295 295 295 295 296 296 296 295 294 293
290 290 291 292 294 295 294 292 291 292 293 293 293 294 294 293 294 294 294 294 295 295 294 294 293 291 291 295 296 294 292 293 293 294 294 293 293 293 293 293 293 292 291 293 294 292 293 296 294 293 297 298 295 293 294 293 293 294 294 294 294 294 294 294 294 294 293 294 294 294 294 294 295 295 295 295 295 294 294 294 294 294 294 293 293 292 292
290 290 290 292 293 293 292 291 292 293 293 293 293 293 294 294 295 295 294 294 294 295 295 294 292 290 291 294 296 295 293 291 292 294 294 293 292 292 292 292 292 292 292 294 295 293 294 295 294 294 296 295 293 293 293 294 295 295 294 294 294 294 294 294 294 294 293 293 293 293 293 293 294 294 295 295 293 293 293 293 293 293 292 292 292 291 291
290 290 291 292 292 291 291 292 293 293 293 293 293 293 294 294 294 293 294 295 296 296 294 293 292 292 292 292 294 295 294 291 291 293 294 294 293 293 292 292 291 291 293 295 295 294 295 296 296 296 295 293 292 293 294 294 295 294 294 294 294 294 294 293 293 293 293 293 293 293 292 292 293 293 293 293 293 292 292 292 292 292 291 291 291 291 290
290 291 291 292 291 291 291 292 293 293 293 293 293 293 293 293 292 292 293 294 294 294 294 293 294 295 294 293 293 294 293 291 292 293 294 294 294 293 293 292 291 292 294 294 293 294 296 296 295 296 295 293 292 294 294 294 294 294 294 294 294 293 293 293 293 293 293 292 292 292 292 292 292 292 292 292 292 292 291 291 291 291 290 290 290 289 289
291 292 292 291 291 291 291 291 292 293 294 294 293 292 292 293 293 293 293 294 294 294 295 294 293 293 292 292 293 293 291 290 293 294 293 293 293 293 293 293 292 292 294 294 294 295 296 295 295 296 295 293 293 294 294 294 294 294 294 294 293 293 293 293 293 293 292 292 292 292 292 292 292 292 292 291 291 291 290 290 290 290 289 289 289 289 289
292 292 291 291 291 292 291 291 291 292 293 293 292 291 292 294 294 293 294 295 296 295 295 294 293 293 293 292 292 293 292 292 293 293 292 292 293 293 293 293 294 293 292 294 295 294 292 293 295 295 294 293 293 294 293 294 294 294 294 294 293 293 293 293 293 293 293 292 292 292 292 292 292 292 291 291 291 291 290 290 290 289 289 289 289 288 288
293 293 291 292 292 292 291 291 292 291 292 293 294 293 292 293 293 293 295 296 295 294 294 295 294 294 294 293 291 292 293 292 291 292 292 291 292 292 292 293 295 294 291 292 294 293 291 294 296 295 293 293 293 293 293 294 293 293 294 294 294 293 293 293 293 293 292 292 292 292 292 292 291 291 291 291 291 291 291 291 290 290 289 289 289 288 288
292 292 291 292 293 292 290 291 292 292 291 293 294 293 292 292 292 292 293 293 293 293 294 296 295 294 295 293 291 291 292 292 291 292 292 291 291 293 291 291 293 295 293 292 294 294 295 296 296 294 293 293 293 292 293 293 292 292 293 294 293 293 292 292 293 293 292 292 292 292 291 292 291 291 291 291 291 291 291 291 290 290 289 289 289 288 288
292 291 291 293 294 292 291 292 293 292 291 291 293 293 291 291 291 291 291 291 292 292 293 294 294 293 293 292 290 291 293 293 291 292 292 290 291 294 293 291 293 295 294 294 295 296 297 297 295 294 294 293 292 292 293 293 293 293 293 293 293 292 291 291 292 292 292 292 292 292 292 291 291 291 291 291 290 290 290 290 290 290 289 289 288 288 287
292 291 292 293 294 293 293 293 293 292 291 291 292 292 291 290 291 292 291 291 292 292 292 292 293 293 292 291 291 292 293 292 291 292 292 291 291 294 295 294 294 293 292 294 296 298 297 296 295 294 293 292 291 293 294 293 293 294 295 294 293 293 291 291 291 291 291 291 292 292 292 292 291 291 291 290 290 290 290 289 289 289 288 288 287 287 287
291 291 292 292 292 292 292 291 291 291 292 291 291 291 290 290 291 291 291 291 292 292 292 292 292 292 292 292 291 291 291 291 290 291 291 291 292 292 293 295 295 293 292 293 296 298 298 296 294 293 293 292 291 292 293 293 293 294 293 292 292 292 291 290 291 290 290 290 290 291 291 291 291 291 290 290 289 289 289 288 288 288 287 287 287 286 286
291 292 292 291 292 293 292 290 290 292 293 292 291 291 291 291 291 291 290 291 293 293 292 292 292 291 291 291 292 292 292 292 291 290 291 292 292 291 291 292 293 294 295 296 296 297 297 295 293 293 294 293 291 291 292 293 293 291 289 288 290 291 291 291 291 290 290 289 289 290 290 290 290 290 289 288 288 288 287 287 287 287 287 286 286 286 285
291 291 291 291 292 293 292 291 291 292 292 291 291 291 290 290 292 292 291 290 291 292 291 292 292 292 291 292 292 291 291 291 291 291 291 291 291 291 293 294 294 295 297 297 296 295 295 293 292 293 294 294 292 292 292 292 291 290 289 288 291 292 292 291 291 290 290 290 289 289 289 289 289 289 288 287 287 287 286 286 286 286 286 286 286 285 285
291 291 292 291 291 291 290 290 291 291 290 290 291 291 290 291 292 292 290 289 290 291 293 293 292 292 292 293 292 291 291 291 291 291 291 291 291 292 295 296 296 295 296 296 295 294 293 292 291 291 293 293 292 292 291 290 290 290 290 290 292 293 292 292 291 291 290 290 289 289 289 289 288 288 287 287 287 286 285 284 285 285 285 285 285 285 285
Wind_Speed
33 34 34 32 33 34 35 38 38 36 33 27 22 14 3 2 2 4 14 16 3 5 3 2 3 1 2 1 1 1 1 0 1 3 3 2 2 2 1 1 1 1 1 1 3 2 1 2 2 2 2 2 2 3 7 5 1 3 2 2 1 1 2 1 3 4 4 5 3 3 3 4 4 1 2 3 2 3 5 4 3 3 3 2 2 2 5
33 34 34 33 33 34 35 36 36 34 30 25 17 7 1 0 4 4 13 15 3 5 1 2 0 2 3 3 3 2 0 1 1 1 2 2 1 1 1 1 1 0 1 2 2 1 1 1 0 0 2 1 2 4 8 6 4 3 1 1 1 1 0 1 2 4 5 6 5 4 5 3 2 1 2 1 3 5 3 2 3 1 3 4 4 4 5
34 34 35 34 33 34 34 35 35 31 27 23 13 3 1 2 1 3 10 14 8 4 3 4 3 1 2 3 3 3 2 1 0 1 1 2 1 2 1 1 1 1 2 3 3 2 1 0 1 2 1 2 3 5 8 6 3 2 2 2 0 2 1 2 2 2 3 3 3 3 2 0 0 1 3 0 4 5 2 1 3 1 3 3 4 4 4
34 34 35 35 34 35 35 35 35 30 25 21 12 3 1 2 2 3 6 9 7 2 0 4 3 1 2 1 2 1 2 4 2 1 1 2 2 3 1 2 2 3 3 3 3 3 2 1 2 2 2 3 2 4 5 4 4 4 7 7 2 2 0 2 5 6 6 6 6 4 2 1 2 2 3 2 2 4 4 4 3 4 3 2 5 4 2
33 34 35 35 35 35 36 36 35 30 25 20 10 3 3 2 1 2 2 4 4 3 4 4 3 0 2 1 1 1 2 4 3 2 1 1 2 3 2 3 2 1 2 3 0 1 2 2 2 1 1 3 3 4 2 3 6 6 6 6 3 4 2 2 4 5 6 6 6 3 1 2 5 5 5 6 2 4 5 4 4 4 3 4 7 6 4
32 33 34 35 34 36 37 37 35 31 25 18 8 2 3 3 1 1 1 1 1 2 3 3 3 3 1 1 1 2 3 3 2 2 3 3 3 2 2 4 3 0 2 3 1 0 1 2 0 0 1 2 4 5 2 1 5 4 3 4 3 4 2 3 2 4 5 4 5 2 0 3 4 4 7 8 6 7 8 8 6 7 6 8 7 8 7
32 32 33 34 34 35 37 37 36 31 23 16 12 5 2 2 2 2 2 1 1 1 3 2 3 4 3 2 2 3 3 3 2 2 2 4 4 2 2 3 4 2 2 4 2 1 2 1 2 2 0 1 2 3 2 2 3 5 4 3 2 3 2 3 3 3 6 5 5 3 3 3 4 5 7 6 6 8 9 8 6 7 8 8 5 8 9
31 31 32 33 33 34 36 37 37 33 24 18 16 9 3 2 1 3 3 3 1 2 3 3 3 3 4 2 2 2 2 3 3 2 1 2 4 3 3 3 4 3 4 4 1 4 5 2 2 4 2 2 1 1 2 3 4 6 3 1 1 1 2 2 1 3 6 5 4 4 5 5 5 8 6 3 4 6 5 4 3 4 7 8 5 6 8
30 31 31 31 32 33 33 34 36 34 27 18 11 7 7 3 2 1 2 2 4 3 3 3 3 3 3 1 1 2 2 2 3 3 1 3 1 3 1 2 1 3 4 3 3 5 5 5 4 6 5 2 3 2 2 3 2 4 1 1 1 1 1 1 1 3 5 3 4 7 5 4 8 8 6 5 6 6 5 5 5 6 6 6 4 5 7
29 29 30 30 31 31 31 32 34 33 30 21 9 5 11 7 2 3 2 0 3 3 2 3 3 1 2 2 2 2 3 4 1 1 1 4 4 3 1 2 2 2 4 3 4 7 5 6 6 6 5 2 3 4 3 3 2 1 1 1 1 2 2 0 2 3 3 3 6 7 4 5 9 7 8 11 11 9 7 5 6 7 6 5 6 7 6
28 28 29 29 29 30 30 31 32 31 31 25 11 6 12 7 2 3 3 1 3 3 2 3 3 1 2 3 3 2 4 6 4 2 0 3 5 4 4 5 3 2 1 1 4 6 7 6 4 4 3 2 3 3 2 2 2 3 4 1 2 1 2 2 3 2 2 2 2 1 1 5 7 5 6 10 11 11 11 9 8 8 5 3 3 4 3
27 27 28 28 28 28 29 29 30 29 28 24 16 13 16 9 1 1 4 2 2 3 2 2 1 0 3 4 2 2 3 5 4 1 1 2 4 5 5 7 4 1 1 6 7 5 4 3 2 1 2 4 4 3 3 3 5 3 4 4 2 2 2 2 1 2 2 0 4 2 4 6 4 3 3 2 2 6 10 9 5 2 1 1 3 3 0
26 26 26 27 26 27 27 27 28 28 25 22 21 21 20 13 3 1 4 3 1 2 1 1 2 2 3 4 3 3 3 4 5 2 1 0 3 4 4 3 1 3 6 7 6 4 2 2 3 3 4 5 6 4 2 4 6 4 2 4 5 4 3 2 1 1 1 1 3 4 5 5 4 5 5 3 4 3 1 4 5 4 1 1 1 1 2
25 25 25 26 25 25 26 25 26 27 24 21 21 23 23 18 8 1 2 3 0 1 1 1 4 4 3 4 4 3 4 5 6 3 1 1 2 2 2 1 4 8 6 3 3 4 1 1 3 3 3 4 5 3 3 4 4 2 2 2 5 5 3 2 1 1 2 2 3 3 4 7 5 4 4 2 1 2 2 3 4 4 2 2 3 2 2
23 24 25 25 24 23 24 24 24 25 24 20 19 22 25 22 12 3 1 3 1 1 2 1 2 3 4 3 3 3 4 4 4 3 3 2 1 1 3 5 10 10 3 1 2 3 1 0 1 2 2 1 1 2 3 3 2 1 3 1 3 4 2 3 3 1 1 1 3 3 3 5 5 3 4 2 2 3 3 2 1 4 3 0 1 1 3
23 23 24 24 23 23 22 23 23 24 24 20 17 20 24 23 16 8 2 3 2 1 1 2 3 2 2 3 2 3 2 2 3 3 4 4 3 4 5 8 10 7 3 3 2 3 3 0 2 2 2 2 2 1 2 2 3 3 5 5 5 3 2 3 3 1 1 2 2 3 3 4 5 5 6 4 3 4 2 2 1 4 4 2 1 3 5
22 22 23 23 23 22 21 22 22 22 24 22 17 18 22 22 18 11 4 2 2 1 3 1 0 1 2 2 2 2 1 1 2 1 2 3 4 5 7 8 7 5 4 4 2 2 3 1 2 2 2 2 2 1 2 0 1 4 5 6 6 4 3 3 1 3 1 3 3 3 2 3 3 3 6 4 3 5 3 1 3 5 5 2 3 4 6
22 21 21 21 22 21 20 21 21 20 22 23 17 14 18 21 19 12 5 2 2 1 3 1 2 2 1 0 2 1 1 1 2 1 2 2 2 3 4 4 4 5 4 3 3 2 3 1 1 2 2 3 0 1 1 1 0 2 2 3 3 3 2 1 0 2 2 2 3 3 3 3 3 4 6 4 1 4 3 3 4 3 4 3 3 4 6
21 21 21 20 20 21 20 20 20 19 20 22 19 13 14 19 20 15 7 3 2 1 4 3 2 1 0 0 1 2 2 1 1 1 1 2 2 3 3 2 2 3 3 3 2 2 2 1 1 2 1 3 2 1 1 1 1 1 1 2 2 1 2 2 1 0 1 2 2 3 3 2 2 3 4 3 2 2 4 4 3 4 4 4 3 4 5
21 21 20 20 19 19 19 19 19 19 18 19 20 15 12 16 18 15 8 2 1 2 4 2 2 1 1 0 0 1 2 2 1 1 2 1 2 3 4 2 3 3 3 3 3 2 2 0 2 1 1 1 1 1 1 2 1 1 0 0 1 1 1 3 2 2 1 1 1 1 3 3 2 1 2 2 2 3 4 3 3 4 4 4 4 4 4
21 20 20 20 19 19 19 18 18 18 17 17 18 16 14 15 16 14 8 1 3 0 2 1 1 4 5 4 4 3 2 2 3 1 2 3 2 3 3 2 2 1 1 1 2 1 1 1 1 1 1 1 1 1 1 1 3 3 2 0 1 2 2 2 2 1 0 1 3 3 4 4 3 1 1 2 3 4 4 4 3 3 3 3 4 5 5
21 20 19 20 19 19 19 18 17 17 16 16 17 16 15 16 16 13 9 3 4 4 5 5 7 9 6 3 4 5 4 6 6 4 3 1 3 1 2 2 2 1 1 2 2 1 0 1 0 0 1 1 1 1 0 0 2 4 2 1 2 3 3 2 2 2 2 4 5 5 5 4 3 2 3 4 6 7 5 5 5 4 3 3 3 5 6
21 20 19 19 19 19 18 18 17 17 15 15 16 16 17 18 16 13 8 1 3 4 6 7 7 5 2 2 6 6 3 4 5 5 5 2 2 1 2 1 1 1 1 2 2 2 2 2 1 1 0 2 1 0 1 1 2 2 1 1 3 3 1 2 2 2 3 4 5 5 5 6 4 3 4 5 6 7 5 5 5 5 4 4 3 5 6
21 20 20 19 19 18 18 17 17 16 15 14 14 16 16 14 13 13 8 2 2 2 2 3 3 2 1 7 8 4 0 2 5 6 6 5 2 1 2 3 2 0 1 2 3 3 2 1 1 1 1 2 2 2 1 2 2 2 1 2 4 3 0 2 2 3 3 4 4 3 4 6 6 5 7 7 7 6 4 4 5 5 5 5 5 6 7
20 20 20 19 18 18 17 16 16 16 15 14 14 16 15 9 7 9 6 3 2 2 1 3 2 1 5 10 6 2 4 8 8 6 6 10 10 6 3 3 3 2 2 3 3 4 2 1 1 1 1 2 1 2 2 2 2 2 1 2 4 2 1 0 2 4 3 4 7 7 8 9 8 6 6 6 7 7 5 4 5 5 5 6 6 7 7
19 20 20 19 18 18 17 16 16 15 14 14 14 14 10 6 7 7 5 3 2 3 2 2 3 5 11 10 5 6 11 12 10 6 5 10 14 13 9 5 1 1 1 3 3 3 3 2 1 2 2 2 2 2 2 2 2 1 2 5 3 1 2 2 2 3 4 6 8 8 8 8 8 7 5 5 6 7 8 7 7 7 7 8 9 9 8
20 20 21 20 19 18 17 16 16 15 13 12 11 9 6 6 7 7 6 5 3 2 3 1 3 9 14 9 7 14 17 14 12 8 1 5 10 14 14 7 1 1 3 3 1 2 3 1 1 2 2 2 1 2 2 2 1 1 4 5 1 1 3 4 2 3 5 6 7 7 5 6 8 8 7 6 6 6 8 8 8 8 9 9 10 11 11
22 21 21 20 18 16 15 15 14 14 13 10 8 8 8 9 10 9 8 7 4 2 1 2 4 9 10 8 10 17 18 16 14 11 6 4 2 7 11 7 3 2 2 2 1 1 2 1 1 2 1 1 1 1 1 1 0 2 5 4 2 3 5 4 3 5 6 7 9 8 5 6 9 9 8 7 5 6 8 9 10 10 10 9 9 10 11
22 22 21 21 18 14 13 14 13 12 12 9 4 5 7 8 9 10 11 10 6 1 1 2 4 4 5 7 12 16 17 17 15 12 11 11 10 5 2 4 4 2 2 3 2 1 2 2 2 2 2 2 2 1 1 0 1 3 5 6 5 5 6 6 6 7 8 9 9 8 7 9 10 9 8 7 5 6 9 10 10 10 9 9 8 9 10
23 22 23 23 19 14 11 11 11 11 11 8 3 1 3 4 4 7 10 12 9 3 1 1 1 3 4 6 9 12 17 17 14 12 11 10 10 8 5 2 3 2 2 2 1 2 1 1 1 2 3 1 2 1 0 1 2 4 6 6 6 5 5 5 6 6 8 9 9 8 9 11 10 9 9 8 8 9 9 8 8 9 9 10 9 9 10
23 24 24 24 20 15 11 9 9 10 9 7 4 2 1 1 3 6 9 11 9 3 2 2 1 3 4 3 3 9 15 14 10 9 8 5 5 7 7 3 1 1 1 0 1 1 2 1 1 2 2 1 3 2 1 2 2 5 5 4 4 5 5 6 6 6 8 9 10 10 10 10 9 9 9 7 7 8 8 7 9 13 14 14 13 12 13
24 25 26 24 20 15 10 8 8 8 6 4 4 4 2 3 6 8 8 7 6 3 2 2 2 2 3 4 6 9 11 8 5 7 6 4 4 7 7 3 1 1 1 2 1 1 1 2 1 1 1 1 3 2 1 2 4 6 5 5 5 6 6 7 7 7 7 8 8 9 10 9 7 9 9 7 6 9 9 10 13 16 16 14 14 15 15
26 26 25 22 17 13 8 7 8 6 2 3 6 7 7 7 7 6 5 4 3 3 3 2 2 1 2 4 5 8 8 5 3 4 4 3 3 4 4 3 2 2 1 2 1 2 1 2 1 1 2 1 3 2 1 3 5 6 6 6 7 7 8 8 8 8 7 7 6 7 9 10 11 11 11 9 10 12 13 12 13 13 11 9 9 11 11
27 25 22 17 12 10 7 4 4 3 1 4 4 6 10 9 6 4 3 2 3 2 2 3 2 1 3 3 3 4 6 4 2 2 3 4 4 3 2 2 3 3 1 0 0 1 1 0 1 1 2 1 2 1 2 5 6 6 7 8 8 8 9 9 8 7 6 5 5 7 9 11 12 12 11 9 9 11 11 9 8 8 7 7 7 8 8
27 22 16 10 8 8 6 4 3 3 4 3 3 8 11 9 5 2 1 2 2 2 1 2 2 0 2 3 3 4 5 4 2 1 1 3 4 2 1 1 3 2 1 1 1 0 1 1 1 1 2 1 0 1 4 5 6 7 9 10 10 9 9 10 9 7 6 5 7 8 9 9 10 10 8 7 7 7 7 7 6 6 6 7 7 7 7
25 18 11 5 5 6 7 6 5 5 3 5 9 10 9 7 3 1 1 1 2 1 1 1 1 1 1 0 3 4 5 4 2 2 1 2 3 2 2 2 2 2 1 2 2 1 1 1 1 1 3 1 2 4 5 5 7 10 10 10 10 9 9 10 9 9 8 8 8 9 8 8 9 8 7 7 7 7 7 8 7 6 7 7 7 6 4
23 15 7 2 1 3 4 3 4 5 7 13 14 9 4 2 1 1 1 2 1 1 2 2 1 2 2 2 3 2 3 3 2 2 2 2 2 2 2 2 1 2 2 3 1 2 1 1 1 0 2 2 4 6 6 5 7 10 10 10 9 7 6 7 7 8 10 10 9 8 7 7 8 7 6 8 8 7 8 8 7 6 7 6 3 2 4
21 12 5 2 2 2 2 1 5 11 14 13 6 1 0 1 1 1 2 2 2 1 2 2 1 2 1 1 2 2 1 2 2 2 2 1 1 2 2 1 1 1 2 3 3 2 1 3 2 1 3 4 4 5 6 7 8 9 8 7 7 5 4 5 5 8 10 9 9 8 8 9 10 9 8 9 9 8 7 7 6 4 2 2 5 8 9
20 13 8 5 3 0 2 8 14 15 10 3 1 1 1 1 2 1 2 1 1 1 1 1 1 2 2 2 4 3 1 1 3 3 2 1 1 1 1 1 1 1 2 3 3 1 2 3 2 1 3 5 5 7 9 10 8 6 5 4 4 4 4 4 5 7 8 8 9 9 8 8 9 9 8 7 8 7 6 5 5 6 9 10 11 11 10
18 12 7 3 2 6 12 15 12 6 0 2 1 1 1 1 1 0 0 1 1 1 1 1 1 2 3 3 3 3 2 1 1 2 2 1 1 0 1 1 1 1 1 2 3 1 1 1 2 2 3 5 6 9 10 9 6 4 4 4 4 5 6 6 6 7 8 8 8 9 9 8 8 7 6 6 6 7 8 8 10 12 14 15 15 14 13
14 9 5 5 10 16 18 13 5 1 2 2 2 1 1 1 1 0 1 1 1 3 2 1 0 2 2 3 2 3 2 1 1 2 1 1 2 1 1 2 1 2 1 4 3 2 3 1 2 2 4 5 6 8 8 6 5 5 5 5 5 7 8 8 8 9 9 8 6 7 9 9 8 7 8 7 7 8 9 10 12 14 16 17 17 17 17
16 14 12 13 15 15 11 5 2 1 1 2 1 1 1 1 1 1 1 0 1 2 2 2 2 3 3 3 3 3 2 1 1 3 2 1 2 1 1 1 1 2 2 4 1 3 3 1 2 3 5 5 6 7 7 6 5 5 5 5 6 7 7 7 8 9 10 8 7 7 9 10 11 12 12 11 11 12 12 13 14 15 17 18 19 19 19
17 14 10 8 6 5 3 2 1 1 1 2 1 1 2 2 1 1 2 2 1 1 1 2 1 2 1 1 1 1 1 0 1 2 1 1 1 1 2 2 1 1 3 1 2 3 1 1 2 4 5 5 6 6 6 6 6 5 5 6 8 10 10 9 8 9 10 10 9 9 9 10 13 15 16 16 16 15 15 16 16 16 17 18 19 19 19
13 7 2 1 1 1 1 1 1 1 1 1 1 1 0 2 2 1 1 2 2 1 2 1 1 1 2 1 1 1 1 0 1 1 0 1 1 2 1 1 2 2 1 2 2 1 2 3 3 4 5 5 5 5 5 5 5 5 5 6 8 11 11 11 9 8 9 10 11 11 11 11 14 16 16 17 16 15 14 15 16 17 18 18 17 17 18
7 3 3 3 2 1 1 1 1 0 1 1 1 2 2 2 2 2 2 3 2 2 3 2 2 0 2 2 1 1 1 1 1 0 1 0 1 0 1 2 1 1 2 2 1 1 2 3 3 4 5 6 6 6 5 4 5 5 5 5 7 8 9 9 8 7 7 8 10 11 11 12 13 14 15 16 16 15 14 14 14 15 16 16 16 17 18
2 0 2 2 1 1 0 0 1 1 1 1 2 3 3 3 4 4 3 2 2 4 4 2 2 1 3 2 0 1 1 1 1 1 0 2 1 2 3 1 1 3 3 2 2 2 3 5 4 4 5 6 7 6 5 4 3 4 4 4 5 6 7 8 8 8 8 9 10 11 11 11 13 14 14 15 16 16 16 15 14 15 16 16 15 16 18
1 0 2 2 1 2 1 1 2 2 2 2 2 3 3 3 3 3 3 3 3 4 4 2 0 1 2 1 0 2 1 1 0 2 0 2 0 2 1 2 1 0 1 1 3 4 4 4 4 5 5 6 6 6 6 4 3 4 4 4 3 5 7 8 7 8 9 9 11 11 11 11 12 13 14 14 15 16 16 16 16 17 17 16 16 17 18
0 1 2 2 1 1 1 2 2 2 2 2 2 2 2 1 3 4 4 3 2 3 4 3 1 1 2 1 0 1 2 1 0 2 1 1 1 2 3 2 2 2 2 3 4 4 4 4 5 5 5 5 5 6 5 4 3 4 4 4 3 4 5 6 7 8 9 9 9 10 10 11 12 12 13 14 14 14 14 15 16 16 17 17 18 18 18
1 0 1 1 2 2 3 2 2 3 3 2 2 2 2 2 3 5 4 3 2 3 3 2 2 1 2 1 1 0 1 0 0 1 1 1 1 0 1 0 2 3 3 4 4 4 4 5 4 5 5 5 5 5 5 3 3 3 3 4 3 5 6 6 7 9 10 10 9 8 8 10 11 12 12 13 13 12 13 15 16 17 17 18 18 18 17
1 0 1 2 2 2 2 1 1 3 4 3 3 3 3 3 4 4 3 2 2 3 2 0 1 1 1 0 2 1 2 2 1 1 0 1 1 2 1 1 3 4 4 4 4 4 5 4 4 4 5 5 4 5 5 4 2 2 3 4 4 5 7 7 7 8 9 9 8 7 8 10 10 10 11 12 13 13 15 16 16 17 17 17 18 18 18
1 1 2 2 3 3 1 0 2 4 5 4 4 4 3 2 4 4 2 1 2 3 2 1 1 1 1 1 0 1 2 1 1 1 1 2 2 3 2 4 6 5 4 4 4 4 5 4 4 4 5 5 4 5 5 5 3 3 4 5 4 2 4 4 4 5 5 5 5 6 8 9 9 9 10 13 16 16 15 14 14 16 17 16 17 17 17
2 2 2 3 3 3 3 2 3 4 4 5 4 3 2 3 5 4 1 1 1 1 2 1 1 2 1 2 2 1 0 0 1 0 2 2 2 3 5 6 5 5 5 5 5 5 5 5 4 5 5 5 5 6 6 6 5 4 5 6 5 3 2 1 1 1 1 2 3 5 6 7 8 10 11 13 14 13 10 10 11 15 16 16 16 17 16
Wind_Direction
6 5 4 2 4 8 9 8 7 2 358 358 358 355 19 85 276 297 357 352 349 92 42 304 21 38 242 290 256 252 34 49 328 337 354 7 15 17 27 160 166 194 196 169 161 161 201 185 176 202 157 127 201 306 336 330 14 66 21 309 304 82 77 17 291 296 300 304 339 43 42 75 91 28 53 109 143 135 149 177 170 159 177 144 119 234 262
7 6 5 3 2 5 9 9 7 5 1 356 356 358 105 9 253 281 1 3 55 120 177 223 90 300 311 356 334 307 270 172 24 342 318 330 62 52 6 177 149 106 82 93 131 182 214 182 350 124 131 188 249 341 360 10 48 47 327 273 282 292 292 96 15 337 328 334 351 352 349 38 108 295 333 84 103 98 112 116 84 128 214 157 156 233 247
7 6 6 4 2 3 7 8 7 6 0 354 357 2 263 351 273 263 354 16 54 122 174 150 150 287 8 6 328 339 327 276 56 167 283 338 119 130 321 318 87 59 58 54 38 41 77 295 349 37 34 290 296 359 3 13 42 17 355 16 215 217 195 141 143 226 240 253 267 263 275 330 81 295 291 294 102 104 113 75 88 215 246 166 169 223 254
8 8 7 6 4 2 4 7 7 6 1 354 355 6 2 29 13 299 334 13 45 77 90 93 112 132 85 22 311 14 328 304 323 122 113 5 66 90 356 345 44 40 53 59 21 7 16 20 52 54 333 284 284 335 348 3 7 10 25 29 77 130 295 199 175 196 207 209 229 226 169 179 213 215 235 236 120 114 107 98 142 194 198 207 211 198 220
9 9 8 7 5 3 4 7 7 7 4 356 351 16 53 69 55 11 341 343 17 27 8 34 50 230 144 117 336 1 331 314 328 28 68 33 55 68 26 17 50 78 86 99 132 322 355 12 76 106 292 271 290 313 329 6 356 10 23 12 64 89 334 260 180 216 226 215 240 269 29 235 210 179 207 235 209 121 126 169 205 165 142 254 239 192 196
10 9 9 8 7 5 6 7 8 10 7 1 4 38 32 52 96 90 56 309 358 23 343 359 28 11 72 115 31 19 14 355 326 330 357 25 38 56 18 7 14 150 142 134 150 325 356 350 346 153 320 298 321 340 357 350 352 22 26 357 75 111 267 246 176 259 266 250 257 267 7 267 241 182 205 222 202 171 181 205 197 156 183 243 226 187 211
11 10 10 10 9 8 8 9 10 12 11 19 48 59 350 40 58 322 3 71 182 258 316 343 54 35 24 32 36 51 29 355 298 291 346 0 360 58 102 312 323 7 96 126 130 202 197 309 293 202 203 318 331 353 332 286 345 37 42 351 90 127 254 228 184 281 294 282 275 247 199 252 278 247 227 217 207 204 206 218 203 182 217 243 210 197 225
12 11 11 11 11 10 10 10 12 14 16 34 56 54 8 47 34 320 11 37 351 327 351 33 73 26 12 29 27 44 41 353 317 308 29 7 333 29 91 253 286 8 69 107 125 230 184 161 268 182 148 327 261 264 268 252 335 14 41 327 352 96 257 239 179 285 282 275 284 264 219 214 242 252 242 216 234 238 237 249 227 201 243 255 223 220 247
12 12 13 12 13 13 11 11 14 16 22 38 58 42 10 358 256 330 64 20 347 347 357 41 79 29 8 29 348 351 3 348 321 307 32 90 51 345 335 220 226 29 49 74 335 285 187 175 212 181 162 220 213 211 220 192 306 346 4 236 347 106 240 323 38 277 261 223 244 263 262 252 252 249 229 214 227 226 218 219 196 189 226 245 230 239 254
13 13 14 13 14 14 13 13 15 19 28 41 59 19 6 359 307 16 75 106 352 2 356 28 74 93 343 321 313 335 320 321 338 190 25 65 61 346 304 160 134 49 35 34 329 303 244 213 219 192 182 235 233 230 232 179 185 270 205 250 298 156 197 212 148 246 263 183 218 256 305 301 269 241 207 213 221 220 223 230 214 200 202 209 221 239 241
13 13 14 14 15 15 15 15 16 20 29 38 49 24 8 4 300 357 50 93 345 354 31 31 53 84 356 339 327 350 350 348 16 103 217 21 22 7 37 64 74 113 107 310 298 283 251 233 227 199 190 308 282 258 299 316 250 200 172 248 321 148 195 220 177 208 274 202 203 291 299 262 261 244 214 218 220 219 222 229 229 217 200 189 233 253 220
13 13 13 14 15 16 16 17 17 21 28 33 40 33 16 5 254 18 64 99 318 351 57 55 52 340 331 340 334 325 346 342 335 333 220 325 350 1 37 52 57 123 314 317 317 305 265 260 322 329 357 359 332 321 349 315 280 246 182 191 223 175 190 226 191 195 245 48 67 77 237 246 269 305 302 265 197 206 217 235 266 272 230 352 1 338 207
12 12 12 13 14 16 16 17 17 18 23 30 36 33 22 16 34 90 79 104 296 352 61 301 322 335 325 348 353 312 315 318 310 320 122 328 359 2 15 54 82 284 306 321 344 13 349 332 2 339 331 353 350 341 323 265 271 287 219 189 191 175 172 189 189 196 218 104 118 182 242 278 315 336 348 15 34 46 194 258 325 358 263 210 90 264 279
10 10 11 12 14 15 15 16 17 16 19 27 34 34 28 26 32 36 78 91 207 278 124 322 334 345 338 347 349 324 333 344 340 358 33 17 38 11 333 301 298 298 299 320 18 42 60 13 24 359 330 0 6 334 300 269 259 304 357 236 189 160 146 168 220 217 175 177 215 243 295 308 314 342 0 3 9 53 136 221 296 318 280 157 126 172 258
8 8 10 10 12 14 14 15 16 14 15 23 33 35 30 26 25 16 119 105 116 311 36 43 295 317 323 328 358 14 3 353 346 344 333 326 355 324 285 296 310 312 310 109 41 54 80 37 44 20 333 350 358 297 308 317 298 10 26 16 154 142 150 171 191 231 136 149 284 305 309 285 268 268 290 279 206 195 170 152 316 324 324 120 136 264 270
7 8 9 9 11 13 13 14 15 13 12 17 30 37 31 25 22 16 18 113 98 323 290 235 232 259 313 308 358 40 27 327 332 341 339 338 329 311 303 308 319 336 39 64 58 88 79 217 175 154 221 202 183 260 290 324 310 323 4 29 52 42 28 120 138 264 115 137 229 239 220 242 242 250 279 283 195 180 134 74 284 294 312 308 220 286 281
6 7 7 8 10 11 12 13 14 13 11 12 25 37 32 26 23 16 8 86 68 281 241 239 7 56 33 333 334 19 38 299 352 18 329 315 313 319 324 325 335 4 46 48 37 72 78 100 133 131 237 222 161 210 258 20 328 310 338 7 22 12 10 59 104 257 215 160 215 239 228 239 239 253 280 284 175 148 113 329 258 270 298 278 183 247 269
5 5 5 7 9 9 10 10 11 13 10 8 16 34 32 26 25 25 34 77 53 304 257 288 63 80 73 166 237 270 319 355 14 1 301 305 327 329 321 323 342 355 18 57 57 51 70 96 141 144 229 270 123 162 270 358 242 269 312 355 358 354 351 12 174 231 218 191 230 270 262 243 249 271 283 299 90 139 172 232 233 244 276 260 198 239 263
3 3 4 6 6 6 7 6 7 10 8 4 8 21 27 22 22 28 39 66 77 324 282 308 69 130 270 42 245 294 338 23 44 37 20 342 326 320 308 308 348 357 13 58 66 53 65 1 309 121 153 305 352 93 288 285 208 267 348 355 336 349 337 337 38 203 239 194 206 295 295 248 213 256 286 340 57 179 221 234 226 225 247 254 237 244 251
2 2 2 3 4 3 4 3 4 6 6 4 4 6 14 17 18 23 33 68 131 300 290 303 92 148 254 12 260 301 19 23 14 87 118 233 291 15 28 348 342 3 16 44 43 31 74 343 310 19 85 312 13 56 312 292 267 264 260 312 270 174 279 301 253 219 258 161 167 290 280 240 228 275 336 36 101 221 252 275 265 232 230 243 246 241 234
360 360 0 1 1 0 0 0 1 1 2 2 0 357 360 5 9 10 5 28 139 132 301 313 348 308 298 281 261 237 199 230 257 224 185 243 292 53 86 239 263 12 31 74 66 21 133 170 284 337 4 314 353 14 321 330 310 273 223 237 305 195 190 257 249 222 171 173 200 216 215 219 225 207 181 197 225 247 263 274 272 254 237 236 243 249 242
357 357 358 358 357 358 358 357 357 358 357 357 356 354 352 352 357 360 347 302 190 220 273 287 301 307 307 301 312 308 272 263 273 253 207 243 327 49 134 202 245 212 171 111 82 3 304 139 207 312 322 293 300 310 319 309 292 289 297 339 266 213 179 190 225 235 221 215 232 253 259 260 249 205 208 249 274 280 265 241 241 253 252 245 258 277 280
354 354 354 354 354 356 356 356 355 354 354 354 352 350 346 344 349 356 353 295 214 260 274 285 307 324 15 25 357 344 299 277 298 273 220 198 333 309 183 197 251 235 162 129 141 170 179 174 168 124 285 256 203 80 339 293 243 257 277 268 261 259 194 154 202 269 292 270 260 266 272 276 273 254 253 265 275 279 266 236 232 250 264 264 267 278 285
352 352 351 351 351 353 355 357 357 355 355 356 350 345 344 345 349 356 8 51 43 356 305 318 359 94 337 328 336 349 220 291 315 294 243 209 191 342 289 234 199 56 292 226 170 126 126 179 142 106 207 229 171 152 232 268 247 221 224 296 288 285 20 128 226 281 304 293 285 287 278 279 288 296 295 290 282 272 253 222 227 249 261 262 263 271 277
350 350 348 348 348 349 351 354 355 355 356 355 349 345 349 359 5 7 24 54 46 75 66 330 311 185 325 328 327 342 339 329 325 311 255 224 209 205 238 226 189 192 233 211 147 101 106 162 128 121 205 219 192 183 197 229 243 201 186 266 272 275 23 4 246 245 248 267 281 288 286 286 290 290 286 289 293 291 281 263 260 267 271 271 271 275 279
348 347 346 344 343 344 347 349 349 350 350 351 352 353 1 25 29 22 35 48 65 98 68 313 266 310 338 342 343 353 354 348 339 325 265 234 226 229 241 253 260 227 124 107 109 129 135 129 126 151 202 207 188 191 202 222 233 188 226 246 240 227 307 288 270 277 281 279 282 287 293 295 291 281 265 257 270 286 292 294 296 296 292 288 286 281 276
344 344 343 341 340 340 342 343 343 343 347 356 7 15 31 48 39 30 27 26 39 48 9 312 265 315 329 331 340 351 358 2 1 0 307 218 225 236 243 247 255 79 86 73 54 123 107 73 166 185 214 232 188 190 221 236 230 218 253 259 223 90 274 268 275 286 275 267 274 282 291 289 284 281 274 262 260 275 283 286 287 285 280 280 282 282 279
342 342 341 338 337 339 342 342 339 340 351 9 37 59 64 58 52 50 44 39 60 130 224 256 277 309 319 318 335 352 3 8 11 26 58 87 153 224 231 218 163 119 126 121 110 127 133 170 207 194 217 236 231 256 276 327 20 243 254 252 191 190 236 238 231 252 257 261 270 272 270 271 273 273 270 263 259 266 272 274 276 277 275 273 274 279 283
340 340 338 336 335 333 336 343 339 336 351 11 56 96 76 60 57 57 49 38 38 106 199 304 306 304 307 308 322 345 4 10 14 34 51 54 56 65 149 169 156 150 136 124 118 147 181 197 200 210 214 175 170 270 319 49 211 241 252 251 231 221 231 233 242 260 271 277 279 279 275 273 274 276 279 278 266 256 262 266 267 270 273 271 266 267 270
338 338 336 336 335 323 318 333 335 328 343 4 25 85 56 46 46 42 30 19 13 18 130 75 329 294 303 302 307 332 351 360 10 25 32 38 42 37 34 118 159 133 91 86 144 188 215 248 253 272 273 188 136 136 207 188 227 256 258 258 262 268 268 261 257 262 270 279 285 286 282 281 284 287 284 276 262 257 262 264 261 264 270 269 267 267 267
337 335 333 335 334 319 302 310 318 316 330 355 17 59 75 348 329 340 347 352 357 10 102 101 288 298 319 314 297 324 334 342 359 11 6 10 17 6 360 3 161 155 117 122 218 189 197 222 239 289 288 156 122 137 184 192 252 273 275 278 287 288 280 275 268 259 263 277 287 286 281 281 286 288 284 273 260 263 270 273 271 274 277 274 271 271 272
336 335 335 335 330 318 298 287 292 300 319 11 53 73 63 331 328 325 320 333 356 40 94 53 1 337 331 313 309 323 328 332 0 10 357 354 3 356 355 13 28 227 150 131 165 241 209 186 184 266 273 125 111 127 195 199 235 267 294 316 307 291 282 280 280 275 270 274 281 286 286 284 277 275 278 283 284 283 283 282 280 279 279 277 275 274 275
338 339 339 335 331 324 306 278 272 280 289 100 88 58 26 5 350 334 319 336 20 73 112 86 39 325 293 297 312 336 345 343 1 13 355 334 352 355 344 359 16 357 40 118 188 254 218 144 146 297 305 49 96 109 218 230 241 273 304 310 299 297 296 289 284 282 276 270 268 273 281 286 284 279 276 278 279 278 275 275 278 280 279 278 280 283 286
344 344 341 340 342 342 328 285 248 239 148 113 86 30 11 4 360 354 351 13 48 56 67 80 82 304 310 316 315 346 2 353 332 5 350 324 345 3 322 326 7 9 329 292 159 285 312 270 182 250 297 342 84 86 263 256 262 289 306 304 303 307 305 297 293 288 282 284 286 278 276 282 286 285 282 280 278 276 275 274 276 281 285 286 287 288 288
347 345 343 353 14 22 31 65 104 106 95 80 13 354 357 358 0 19 24 30 48 44 21 58 92 346 348 354 313 321 357 356 300 279 293 304 333 11 51 359 8 352 285 335 36 340 296 247 176 237 302 314 153 238 248 255 282 307 314 311 313 313 305 303 307 309 308 312 309 298 294 299 301 300 298 296 291 287 284 277 268 268 275 283 284 280 276
348 346 348 16 54 55 63 73 69 67 59 348 329 332 345 355 6 103 153 32 55 119 146 57 69 156 138 201 269 300 352 358 308 288 296 305 324 358 69 60 359 291 289 27 19 297 275 207 162 308 318 307 224 241 238 255 295 311 313 309 305 303 302 305 313 320 319 315 307 301 301 305 305 304 302 297 292 286 282 279 273 266 267 271 275 279 286
350 348 348 3 59 36 44 59 50 19 337 320 317 317 323 346 15 40 23 26 41 106 113 102 191 211 177 200 249 302 351 341 316 332 339 314 304 327 42 61 309 288 359 16 328 256 284 9 97 280 275 249 246 254 254 272 296 302 304 301 296 298 304 308 315 321 318 314 310 308 305 304 303 302 299 298 296 292 286 285 279 270 271 276 288 8 42
350 356 6 18 18 32 66 16 334 325 319 315 312 296 159 65 59 21 9 19 359 359 77 111 214 252 156 196 252 283 303 304 349 2 323 288 307 335 14 44 251 285 358 323 268 245 18 27 65 153 259 273 285 285 285 293 294 292 294 295 294 298 303 300 314 325 323 320 321 319 318 316 313 309 306 307 310 312 306 295 284 278 298 19 63 67 61
356 5 10 13 29 132 273 311 316 313 311 319 111 127 14 42 65 15 342 358 341 333 43 127 236 216 172 213 271 274 210 72 15 351 300 293 331 324 342 340 307 32 30 315 286 330 7 339 359 13 289 292 314 320 315 313 310 307 313 312 308 314 312 310 327 334 325 317 316 316 317 316 311 310 317 328 336 345 354 8 40 61 67 68 66 63 57
2 9 7 9 349 302 307 319 323 316 304 90 56 20 32 53 83 171 9 22 350 289 215 185 231 220 191 205 269 271 204 157 331 294 256 264 277 217 68 304 280 43 35 291 279 9 29 296 343 4 307 294 319 330 330 333 344 353 354 348 344 344 340 335 340 336 325 318 315 316 319 321 319 324 345 6 18 25 33 47 59 65 69 69 65 61 58
354 355 333 300 303 307 313 326 348 82 108 47 19 46 56 316 275 163 82 42 304 266 234 165 217 270 235 181 200 245 244 212 158 117 104 297 296 62 64 283 281 66 29 259 257 64 67 31 343 321 282 290 320 329 330 342 355 353 346 348 352 351 346 342 343 343 340 336 329 328 338 351 4 16 22 28 42 53 55 57 60 63 65 66 66 64 61
324 313 297 290 294 302 312 336 23 57 57 53 37 351 320 282 278 357 10 290 243 259 254 184 198 245 235 183 187 224 245 248 75 83 79 298 286 116 119 307 13 66 242 250 264 57 55 6 303 283 277 296 321 326 331 343 343 334 335 345 353 354 348 343 346 351 352 350 344 343 358 18 36 47 50 54 60 63 63 61 60 61 62 64 65 64 60
321 310 298 291 294 305 323 345 348 27 62 66 41 350 339 334 341 342 314 283 256 260 264 246 253 284 280 217 228 247 231 232 47 83 117 259 281 71 62 21 25 203 236 261 56 56 15 236 242 265 284 309 322 326 337 344 338 333 337 343 352 357 354 349 352 359 1 2 6 11 21 41 57 63 65 68 70 69 66 65 66 68 69 68 66 64 62
329 325 336 347 320 330 354 333 333 84 69 17 102 115 348 308 306 314 298 285 274 264 256 250 290 343 311 286 308 335 317 328 46 57 37 282 357 63 68 262 244 242 284 19 46 357 259 234 231 259 290 310 314 321 335 342 338 336 331 333 350 2 358 352 359 9 8 10 21 31 41 58 70 71 68 68 71 73 73 72 73 75 75 72 68 65 64
342 353 26 11 338 328 68 2 342 17 190 217 176 151 167 221 241 245 246 236 237 275 280 238 147 107 301 299 327 313 297 3 52 319 264 37 42 26 228 231 243 32 30 5 346 316 287 268 265 287 304 305 306 316 327 327 328 330 323 325 348 4 359 350 358 10 8 11 28 40 49 61 71 72 67 65 68 72 75 75 75 76 75 72 68 64 64
7 90 69 41 330 305 100 77 320 308 187 196 190 174 179 209 231 245 254 255 270 285 277 236 162 196 281 283 311 317 337 64 84 253 145 88 75 251 231 215 35 45 44 353 314 276 252 256 267 286 295 295 300 307 307 303 320 339 334 327 347 6 1 352 356 4 9 21 39 50 55 62 69 72 70 68 66 68 71 75 78 80 78 73 70 69 69
343 56 76 86 304 311 351 186 218 221 211 210 205 199 207 235 253 257 258 253 261 274 276 268 271 296 268 243 238 299 323 63 68 270 254 103 185 282 352 34 358 132 130 235 262 250 245 260 273 277 282 292 298 299 301 311 339 352 343 335 357 18 9 358 358 4 10 28 49 56 57 63 71 75 76 72 68 68 72 77 81 84 83 80 78 77 75
228 42 77 114 218 255 229 230 266 270 238 222 226 229 239 280 289 278 262 247 251 270 268 258 270 331 316 310 175 260 289 18 312 270 275 95 72 345 17 13 309 264 184 195 221 234 242 255 264 270 280 289 289 288 295 315 339 346 341 339 359 24 16 2 359 2 6 21 46 60 66 73 77 79 81 78 71 68 72 78 81 83 83 81 79 77 75
205 90 147 179 219 233 221 230 321 313 280 264 279 286 277 274 277 276 269 262 274 282 259 212 167 207 273 278 96 90 289 279 184 280 347 37 78 175 113 123 281 280 251 217 216 232 248 254 264 279 286 288 288 288 289 300 324 338 325 320 347 33 40 25 13 12 17 25 37 51 69 82 86 85 86 83 76 73 77 82 84 83 82 81 81 78 74
200 234 207 201 235 264 268 351 340 295 292 312 316 286 264 261 272 274 265 259 288 313 320 217 151 185 243 318 44 2 277 247 164 115 26 245 191 157 138 208 229 232 233 231 227 236 251 260 268 279 282 283 285 284 282 288 318 338 316 314 347 44 57 42 21 18 27 38 48 58 71 81 86 87 89 92 92 90 87 85 87 88 87 86 86 84 79
217 247 246 222 213 220 235 299 270 267 280 293 285 263 243 242 256 258 257 289 332 339 322 247 193 86 58 59 153 231 246 237 116 116 228 234 186 143 165 230 234 225 230 247 251 250 257 259 248 251 271 281 274 264 267 279 298 310 304 303 315 39 71 54 28 23 31 44 59 69 74 81 90 97 103 106 103 96 87 81 86 93 94 92 92 91 88
220 230 256 253 225 212 222 248 255 251 255 264 260 238 207 225 243 249 280 338 310 280 248 209 136 99 130 213 205 192 186 56 62 270 249 244 209 177 193 219 230 223 227 247 262 265 263 252 232 227 243 256 253 249 256 264 266 264 271 279 275 245 181 160 133 95 67 46 51 65 77 91 106 114 113 108 101 94 86 82 89 96 98 97 96 97 96